Skip Page Navigation
NASA JPL Caltech
NASA Logo - Jet Propulsion Laboratory + View the NASA Portal
+ Center for Near-Earth Object Studies
JPL Home Earth Solar System Stars & Galaxies Technology
JPL Solar System Dynamics
BODIES ORBITS EPHEMERIDES TOOLS PHYSICAL DATA DISCOVERY FAQ SITE MAP
JPL Small-Body Database Browser
Search: [ help ]  
434772 (2006 KT44)
Classification: Main-belt Asteroid          SPK-ID: 2434772
Ephemeris | Orbit Diagram | Orbital Elements | Mission Design | Physical Parameters | Discovery Circumstances | Close-Approach Data ]

[ show orbit diagram ]
Orbital Elements at Epoch 2459200.5 (2020-Dec-17.0) TDB
Reference: JPL 18 (heliocentric ecliptic J2000)
 Element Value Uncertainty (1-sigma)   Units 
e .2083114107266102 4.9514e-08  
a 2.710729618027752 2.305e-08 au
q 2.146053707197986 1.2366e-07 au
i 12.62165829050004 6.28e-06 deg
node 174.5024411830537 2.057e-05 deg
peri 98.0795957328537 3.9223e-05 deg
M 63.61806710254599 2.4636e-05 deg
tp 2458912.424915814615
(2020-Mar-03.92491581)
0.00011089 TDB
period 1630.150600765236
4.46
2.0792e-05
5.693e-08
d
yr
n .2208384917510115 2.8168e-09 deg/d
Q 3.275405528857518 2.7851e-08 au
  Orbit Determination Parameters
   # obs. used (total)      183  
   data-arc span      5265 days (14.41 yr)  
   first obs. used      2006-05-21  
   last obs. used      2020-10-19  
   planetary ephem.      DE441  
   SB-pert. ephem.      SB441-N16  
   condition code      0  
   norm. resid. RMS      .51465  
   source      ORB  
   producer      Otto Matic  
   solution date      2021-Apr-14 14:17:18  

Additional Information
 Earth MOID = 1.1725 au 
 Jupiter MOID = 2.01525 au 
 T_jup = 3.297 
[ show covariance matrix ]

Ephemeris | Orbit Diagram | Orbital Elements | Mission Design | Physical Parameters | Discovery Circumstances | Close-Approach Data ]

Physical Parameter Table
Parameter Symbol Value Units Sigma Reference Notes
absolute magnitude H 17.32   n/a E2021B25  

434772 (2006 KT44)          Discovered 2006-May-21 by Spacewatch at Kitt Peak
Reference: Last Updated: 2015-06-04

[ show close-approach data ]
Alternate Designations
 2006 KT44 = 2015 FY301 
Ephemeris | Orbit Diagram | Orbital Elements | Mission Design | Physical Parameters | Discovery Circumstances | Close-Approach Data ]
ABOUT SSD CREDITS/AWARDS PRIVACY/COPYRIGHT GLOSSARY LINKS
FirstGov 2021-May-11 21:34 UT
(server date/time)  
NASA Home Page
Site Manager:   Ryan S. Park
Webmaster  Alan B. Chamberlin